User: anonymous   Login
Location: Newark
(39.0622°N, 106.5590°E)
Time: 04:15:16
(UTC+00:00)
Language:

Tiros 1 - Orbit

View from above orbital plane
View from above orbital plane
View from above satellite
View from above satellite

Ground track
Ground track

The orbit data is extracted from the following two-line orbital elements,

1    29U 60002B   20019.28360695 -.00000139 +00000-0 +10331-4 0  9996
2    29 048.3802 297.3080 0024584 309.5248 050.3491 14.74337575196386
Epoch (UTC): 19 January 2020 06:48:23
Eccentricity: 0.0024584
inclination: 48.3802°
perigee height: 630 km
apogee height: 664 km
right ascension of ascending node: 297.3080°
argument of perigee: 309.5248°
revolutions per day: 14.74337575
mean anomaly at epoch: 50.3491°
orbit number at epoch: 19638

The dashed part of the orbit path shows where the satellite is in the earth's shadow,  

DLR